Tracking 35237 objects as of 5-Sep-2026
HD Live streaming from Space Station
objects crossing your sky now

CZ-3C DEB

Track CZ-3C DEB now!


NORAD ID: 40820
Int'l Code: 2010-057AM
Launch date: October 31, 2010
Source: People's Republic of China (PRC)
Launch site: Xichang Space Center, China (XSC)

Note: This is SATELLITE DEBRIS
Your satellite tracking list
Your tracking list is empty




NASA's NSSDC Master Catalog

Two Line Element Set (TLE):
1 40820U 10057AM  15285.50085152 +.00000308 +00000-0 +38536-2 0  9992
2 40820 020.4782 000.0137 7218631 265.1947 017.1349 02.21817904006131
Source of the keplerian elements: AFSPC